This is the latest recevied weather packets stored in our database for station/object KC1OEK-13. If no packets are shown the sender has not sent any weather packets the latest 10 day(s).
| Time | Temp. | Humidity | Pressure | Rain* | Wind** | Luminosity | Snow |
|---|---|---|---|---|---|---|---|
| 1777706738 | 8.33° C | 96% | 1012.8 hPa | 1.78 mm | - | 0 W/m² | - |
| 1777706437 | 8.33° C | 96% | 1013.3 hPa | 0 mm | - | 0 W/m² | - |
| 1777706134 | 8.33° C | 95% | 1013.1 hPa | 0 mm | - | 0 W/m² | - |
| 1777705832 | 8.33° C | 94% | 1013 hPa | 0 mm | - | 0 W/m² | - |
| 1777705530 | 8.33° C | 93% | 1013.1 hPa | 0 mm | - | 0 W/m² | - |
| 1777705228 | 8.33° C | 91% | 1013 hPa | 0 mm | - | 0 W/m² | - |
| 1777704926 | 8.33° C | 91% | 1013.1 hPa | 0 mm | - | 0 W/m² | - |
| 1777704623 | 8.33° C | 89% | 1013 hPa | 0 mm | - | 0 W/m² | - |
| 1777704322 | 8.33° C | 90% | 1013 hPa | 0 mm | - | 0 W/m² | - |
| 1777704018 | 8.33° C | 90% | 1013.1 hPa | 0 mm | - | 0 W/m² | - |
| 1777703716 | 8.89° C | 90% | 1013.1 hPa | 0 mm | - | 0 W/m² | - |
| 1777703414 | 8.89° C | 89% | 1013.2 hPa | 0 mm | - | 0 W/m² | - |
| 1777703110 | 9.44° C | 86% | 1013 hPa | 0 mm | - | 0 W/m² | - |
| 1777702809 | 9.44° C | 82% | 1013 hPa | 0 mm | - | 0 W/m² | - |
| 1777702506 | 8.89° C | 86% | 1013.4 hPa | 0 mm | - | 0 W/m² | - |
| 1777702203 | 8.89° C | 86% | 1013.4 hPa | 0 mm | - | 0 W/m² | - |
| 1777701898 | 8.89° C | 85% | 1013.3 hPa | 0 mm | - | 0 W/m² | - |
| 1777701595 | 8.89° C | 84% | 1013.3 hPa | 0 mm | - | 0 W/m² | - |
| 1777701292 | 8.89° C | 82% | 1013.3 hPa | 0 mm | - | 0 W/m² | - |
| 1777700987 | 8.89° C | 81% | 1013.3 hPa | 0 mm | - | 0 W/m² | - |
| 1777700684 | 8.89° C | 81% | 1013.2 hPa | 0 mm | - | 0 W/m² | - |
| 1777700381 | 8.89° C | 82% | 1013.2 hPa | 0 mm | - | 0 W/m² | - |
| 1777700078 | 8.89° C | 83% | 1013.2 hPa | 0 mm | - | 0 W/m² | - |
| 1777699776 | 8.89° C | 83% | 1013.3 hPa | 0 mm | - | 0 W/m² | - |
| 1777699474 | 8.89° C | 83% | 1012.9 hPa | 0 mm | - | 0 W/m² | - |
* Rain latest hour (hover to see other rain measurements)
** Current wind speed in m/s (hover to see current wind gust speed)